Location: Mount Tamalpais State Park
(37.9108°N, 122.6128°W)
Time: 18:31:10
(UTC-07:00)

Daily predictions for brighter satellites

Satellite Brightness Start Highest point End
(mag) Time Altitude Azimuth Time Altitude Azimuth Time Altitude Azimuth
Cosmos 1570 Rocket 4.3 20:08:42 10° S 20:13:44 46° ESE 20:18:45 10° NNE
CZ-4B DEB 3.1 20:13:19 10° SSE 20:16:29 47° ENE 20:19:40 10° N
FREGAT/IRIS 4.2 20:14:29 10° S 20:17:27 40° W 20:20:27 10° NNW
Helios 1B rocket 3.3 20:16:51 10° N 20:20:54 57° WNW 20:24:55 10° SSW
Cosmos 1821 Rocket 3.9 20:16:04 10° S 20:22:08 70° E 20:28:11 10° NNE
OAO 2 Rocket 3.9 20:17:47 10° SW 20:22:27 40° SSE 20:27:13 10° E
Meteor 1-11 Rocket 4.5 20:19:32 10° SSW 20:25:03 58° WNW 20:30:30 10° N
Cosmos 1605 Rocket 4.4 20:19:16 10° SSE 20:25:09 42° E 20:31:00 10° NNE
NOSS 7 (E) 4.3 20:27:40 10° SSW 20:31:13 70° ESE 20:34:33 10° NE
Cosmos 1975 4.0 20:29:08 10° SE 20:32:27 24° E 20:35:47 10° NE
Iridium 4 Rocket 4.5 20:28:49 10° NNE 20:32:58 25° ENE 20:36:39 11° SE
Cosmos 2219 4.1 20:28:01 10° NNW 20:33:27 52° WSW 20:38:52 10° S
Okean 2 3.4 20:29:54 10° N 20:34:03 63° E 20:38:09 10° SSE
DELTA 2 R/B (1) 3.7 20:30:14 10° W 20:35:49 75° N 20:41:10 11° E
Helios 1A 4.2 20:32:49 10° S 20:36:48 44° W 20:40:49 10° NNW
Lacrosse 5 rocket 2.5 20:39:52 10° NNW 20:42:58 24° NE 20:45:09 14° E
H-2A R/B 3.9 20:43:39 12° E 20:44:50 13° ENE 20:46:49 10° NE
BREEZE-M DEB (TANK) 4.2 20:44:41 10° NNE 20:45:12 10° NNE 20:45:46 10° NE
Cosmos 1697 Rocket 3.6 20:42:19 10° SSE 20:46:56 26° ESE 20:51:32 10° NE
Meteor 2-4 Rocket 4.3 20:42:26 10° NNW 20:48:14 65° W 20:54:05 10° S
H-2A R/B 2.7 20:44:51 10° SSE 20:48:42 82° ENE 20:52:38 10° N
Cosmos 1892 Rocket 3.8 20:44:15 10° N 20:48:44 74° W 20:53:12 10° S
ALOS 2.3 20:44:12 10° S 20:48:53 83° W 20:53:34 10° NNW
Cosmos 2278 3.6 20:43:39 10° SSW 20:49:18 81° ESE 20:55:01 10° NNE
Cosmos 1025 Rocket 4.4 20:45:18 10° NNW 20:49:25 42° W 20:53:29 10° SSW
Cosmos 1626 Rocket 4.2 20:45:43 10° N 20:49:48 36° ENE 20:52:45 16° SE
ERS-1 Rocket 3.7 20:47:45 15° SE 20:51:19 35° ENE 20:55:51 10° N
EO 1 Delta rocket 3.9 20:47:34 10° N 20:52:16 83° E 20:57:40 10° S
Cosmos 1455 Rocket 3.0 20:47:57 10° S 20:52:16 85° W 20:56:38 10° N
Cosmos 1461 3.0 20:51:29 10° NNW 20:55:27 53° ENE 20:57:44 22° SE
Cosmos 2123 Rocket 3.9 20:49:43 10° N 20:55:56 81° E 21:02:06 10° S
Cosmos 1602 Rocket 3.9 20:53:59 10° N 20:58:18 46° E 21:01:15 18° SSE
BREEZE-M DEB (TANK) 4.1 20:56:46 10° SW 21:00:35 86° NNW 21:14:13 10° NE
Meteor 1-12 Rocket 4.2 20:55:18 10° S 21:00:56 66° E 21:06:42 10° NNE
Cosmos 2369 3.7 20:56:59 10° SSW 21:02:39 88° WNW 21:08:23 10° NNE
Meteor 2-15 Rocket 4.5 20:57:09 10° N 21:03:15 85° W 21:09:19 10° S
Cosmos 1939 Rocket 3.7 21:03:34 25° ESE 21:05:09 35° ENE 21:08:56 10° N
CZ-2D R/B 4.0 21:01:59 10° S 21:05:45 52° W 21:09:32 10° NNW
SL-24 R/B - RUBIN 2 4.3 21:02:12 10° SSW 21:07:48 60° ESE 21:14:05 10° NE
Cosmos 1980 Rocket 3.2 21:08:25 24° ESE 21:09:06 24° ESE 21:13:35 10° NE
Cosmos 1459 Rocket 4.5 21:05:51 18° SE 21:09:44 36° E 21:15:12 10° NNE
Resurs 01 Rocket 4.3 21:07:22 10° SW 21:10:37 20° W 21:13:53 10° NW
Hubble Space Telescope 2.8 21:10:15 10° SW 21:12:41 15° SSW 21:13:46 14° S
Cosmos 468 Rocket 4.2 21:09:52 10° S 21:14:43 45° ESE 21:19:36 10° NNE
USA 186 3.0 21:13:18 10° S 21:16:16 39° W 21:19:06 10° NNW
Lacrosse 5 3.3 21:12:12 10° NNW 21:16:24 25° NE 21:18:37 19° ENE
Cosmos 2084 4.5 21:14:26 10° NNW 21:18:02 29° NE 21:18:57 26° ENE
Tiangong 1 2.6 21:16:22 10° WNW 21:19:11 31° N 21:20:21 23° NE
OTV 4 0.4 21:16:43 10° W 21:19:39 62° SSW 21:19:48 61° S
SPOT 5 3.8 21:20:37 29° E 21:21:48 33° ENE 21:26:09 10° N
Cosmos 220 Rocket 3.9 21:17:41 10° NNW 21:21:54 65° ENE 21:23:16 39° SE
Cosmos 1153 Rocket 4.4 21:15:51 10° S 21:22:03 83° E 21:28:14 10° N
Cosmos 1346 Rocket 4.1 21:18:59 10° NNW 21:22:40 39° W 21:26:23 10° SSW
Cosmos 1814 Rocket 4.2 21:17:54 10° S 21:23:00 46° ESE 21:28:04 10° NNE
Delta 2 Rocket 4.3 21:21:16 10° W 21:26:38 49° SSW 21:28:23 35° SSE
Cosmos 1500 3.0 21:28:22 36° S 21:29:48 79° E 21:33:35 10° N
CZ-4 DEB 3.1 21:32:15 48° SSW 21:32:51 62° WSW 21:35:58 10° NNW
RESURS DK-1 3.5 21:30:43 10° N 21:34:13 28° NE 21:34:13 28° NE
Cosmos 1802 Rocket 4.2 21:32:30 27° SSE 21:35:45 52° E 21:41:58 10° NNE
Cosmos 2227 Rocket 2.7 21:32:47 10° NNW 21:38:18 55° WSW 21:42:03 20° S
Cosmos 1656 3.9 21:37:21 10° SSW 21:42:58 73° WNW 21:48:34 10° NNE
Cosmos 1340 4.1 21:42:29 10° N 21:44:44 27° NE 21:44:44 27° NE
Cosmos 2298 Rocket 3.9 21:42:36 10° NNW 21:47:57 88° E 21:49:29 48° SSE
Cosmos 2016 Rocket 3.9 21:52:14 46° SE 21:53:50 60° E 21:59:54 10° NNE
Cosmos 2297 Rocket 2.6 21:48:25 10° NNW 21:53:58 58° WSW 21:56:28 32° S
Envisat 3.1 21:54:39 39° S 21:56:28 71° WSW 22:01:33 10° NNW
YAOGAN 6 3.9 21:58:34 33° NNE 21:58:34 33° NNE 22:00:50 10° N
H-2A R/B 3.7 22:00:30 19° NE 22:00:30 19° NE 22:02:58 10° NNE
Terra 3.9 22:02:30 14° NE 22:02:30 14° NE 22:03:59 10° NNE
Cosmos 1743 3.2 22:03:30 58° NNW 22:03:30 58° NNW 22:06:45 10° N
Cosmos 1937 Rocket 3.3 21:58:18 10° NNW 22:03:36 79° ENE 22:04:02 72° SE
ASTEX 1 3.3 22:00:35 10° N 22:05:29 73° E 22:05:29 73° E
Cosmos 2173 Rocket 4.1 22:02:01 20° SSW 22:06:38 78° W 22:13:00 10° N
OAO 2 Rocket 3.5 22:01:57 10° WSW 22:06:29 60° SSW 22:06:29 60° SSW
Cosmos 2098 Rocket 4.1 22:07:38 54° SE 22:08:44 61° E 22:14:50 10° NNE
Cosmos 1825 Rocket 3.7 22:05:41 10° N 22:09:38 70° NNW 22:09:38 70° NNW
Cosmos 2150 Rocket 4.3 22:09:37 10° NNW 22:14:41 59° WSW 22:15:23 54° SW
USA 245 4.3 22:15:08 67° ESE 22:15:43 72° ENE 22:22:04 10° N
SPOT 1/Viking Rocket 3.7 22:18:31 62° NE 22:18:31 62° NE 22:23:13 10° N
MetOp-A 4.0 22:17:45 73° SSW 22:18:12 80° WSW 22:23:35 10° NNW
Cosmos 2061 Rocket 4.4 22:13:59 19° SSW 22:18:32 62° W 22:24:45 10° N
Cosmos 1953 Rocket 4.2 22:14:41 10° N 22:18:06 53° N 22:18:06 53° N
Cosmos 990 Rocket 4.0 22:13:57 10° NNW 22:18:54 75° NNE 22:18:54 75° NNE
H-2A R/B 2.9 22:20:48 44° W 22:20:48 44° W 22:24:25 10° NNW
Cosmos 1864 Rocket 4.4 22:21:48 64° ENE 22:21:48 64° ENE 22:27:30 10° NNE
Lacrosse 5 rocket 3.1 22:18:56 10° WNW 22:20:53 24° W 22:20:53 24° W
DELTA 2 R/B (1) 3.6 22:16:48 10° WNW 22:21:55 67° SW 22:21:55 67° SW
Tsikada Rocket 4.1 22:19:05 10° N 22:25:17 61° ENE 22:25:17 61° ENE
Cosmos 967 Rocket 4.5 22:19:24 10° NNW 22:25:42 63° ENE 22:25:50 63° ENE
Cosmos 1697 Rocket 3.9 22:25:23 10° SW 22:30:39 39° WNW 22:35:57 10° N
SL-16 R/B 4.1 22:39:10 19° NE 22:39:10 19° NE 22:40:45 10° NE
NOAA 11 4.3 22:38:49 71° NNW 22:38:49 71° NNW 22:43:42 10° NNW
Cosmos 1763 Rocket 4.1 22:44:11 52° NW 22:44:11 52° NW 22:48:49 10° N
Cosmos 1725 Rocket 4.1 22:52:04 69° W 22:52:04 69° W 22:58:17 10° N
Cosmos 1980 Rocket 3.2 22:50:00 25° WSW 22:52:47 43° WNW 22:58:12 10° N
ARGOS 3.7 22:53:55 54° NW 22:53:55 54° NW 22:58:20 10° NNW
Lacrosse 5 3.2 22:54:42 10° NW 22:57:49 36° WNW 22:57:49 36° WNW
USA 215 3.5 23:19:35 65° NNW 23:19:35 65° NNW 23:25:08 10° NW
Cosmos 2263 Rocket 3.7 23:18:37 10° NNW 23:21:38 31° N 23:21:38 31° N
Cosmos 2322 Rocket 3.7 23:26:55 30° N 23:26:55 30° N 23:29:46 10° NNE
Terra 4.1 23:41:24 21° NNW 23:41:24 21° NNW 23:43:03 10° NNW
H-2A R/B 4.0 23:41:08 24° NW 23:41:08 24° NW 23:43:16 10° NNW
